• In Kazakhstan
  • List of Countries
  • For 7 days
  • Water Temperature
  • Satellite Maps
  • Weather Map
  • News
  • Weather Widgets
  • user-avatar
    Login

    Hourly Weather Algiers

    Today, 18 November, Sunday

    Time Temperature Precipitation Wind Pressure Humidity
    00:00 +14°C° 0 mm 1 mps 745 mmHg 91%
    01:00 +14°C° 0 mm 1 mps 745 mmHg 90%
    02:00 +14°C° 0 mm 2 mps 744 mmHg 88%
    03:00 +14°C° 0 mm 2 mps 744 mmHg 87%
    04:00 +14°C° 0 mm 2 mps 744 mmHg 85%
    05:00 +14°C° 0 mm 2 mps 744 mmHg 83%
    06:00 +13°C° 0 mm 3 mps 744 mmHg 81%
    07:00 +14°C° 0 mm 3 mps 744 mmHg 75%
    08:00 +17°C° 0 mm 3 mps 744 mmHg 69%
    09:00 +18°C° 0 mm 4 mps 744 mmHg 63%
    10:00 +20°C° 0 mm 4 mps 743 mmHg 57%
    11:00 +21°C° 0 mm 4 mps 743 mmHg 52%
    12:00 +22°C° 0 mm 5 mps 742 mmHg 46%
    13:00 +22°C° 0 mm 5 mps 742 mmHg 46%
    14:00 +22°C° 0 mm 5 mps 741 mmHg 46%
    15:00 +22°C° 0 mm 5 mps 741 mmHg 46%
    16:00 +21°C° 0 mm 5 mps 741 mmHg 49%
    17:00 +20°C° 0 mm 5 mps 741 mmHg 51%
    18:00 +19°C° 0 mm 5 mps 740 mmHg 53%
    19:00 +19°C° 0 mm 5 mps 740 mmHg 54%
    20:00 +19°C° 0 mm 5 mps 740 mmHg 55%
    21:00 +19°C° 0 mm 5 mps 740 mmHg 56%
    22:00 +17°C° 0 mm 5 mps 740 mmHg 60%
    23:00 +17°C° 0 mm 4 mps 739 mmHg 63%

    Tomorrow, 19 November, Monday

    Time Temperature Precipitation Wind Pressure Humidity
    00:00 +17°C° 0 mm 4 mps 739 mmHg 67%
    01:00 +17°C° 0 mm 4 mps 738 mmHg 68%
    02:00 +15°C° 0 mm 4 mps 738 mmHg 69%
    03:00 +15°C° 0 mm 4 mps 738 mmHg 69%
    04:00 +15°C° 0.1 mm 4 mps 738 mmHg 70%
    05:00 +15°C° 0.1 mm 4 mps 738 mmHg 71%
    06:00 +14°C° 0.1 mm 5 mps 737 mmHg 71%
    07:00 +15°C° 0.5 mm 5 mps 738 mmHg 69%
    08:00 +16°C° 0.5 mm 6 mps 738 mmHg 66%
    09:00 +16°C° 0.5 mm 7 mps 738 mmHg 63%
    10:00 +17°C° 0.3 mm 7 mps 738 mmHg 59%
    11:00 +18°C° 0.3 mm 7 mps 738 mmHg 54%
    12:00 +20°C° 0.3 mm 8 mps 738 mmHg 50%
    13:00 +18°C° 0.1 mm 8 mps 737 mmHg 51%
    14:00 +18°C° 0.1 mm 9 mps 737 mmHg 52%
    15:00 +18°C° 0.1 mm 9 mps 737 mmHg 53%
    16:00 +17°C° 0.2 mm 9 mps 737 mmHg 57%
    17:00 +16°C° 0.2 mm 9 mps 737 mmHg 61%
    18:00 +15°C° 0.2 mm 9 mps 737 mmHg 65%
    19:00 +15°C° 0.2 mm 9 mps 737 mmHg 67%
    20:00 +13°C° 0.2 mm 9 mps 737 mmHg 69%
    21:00 +13°C° 0.2 mm 9 mps 738 mmHg 70%
    22:00 +13°C° 0.2 mm 9 mps 738 mmHg 71%
    23:00 +13°C° 0.2 mm 9 mps 738 mmHg 72%

    Day after tomorrow, 20 November, Tuesday

    Time Temperature Precipitation Wind Pressure Humidity
    00:00 +13°C° 0.2 mm 9 mps 738 mmHg 73%
    01:00 +13°C° 1.2 mm 9 mps 738 mmHg 76%
    02:00 +13°C° 1.2 mm 8 mps 738 mmHg 78%
    03:00 +12°C° 1.2 mm 8 mps 738 mmHg 81%
    04:00 +12°C° 2.1 mm 7 mps 738 mmHg 83%
    05:00 +12°C° 2.1 mm 7 mps 739 mmHg 84%
    06:00 +12°C° 2.1 mm 7 mps 739 mmHg 86%
    07:00 +14°C° 0.5 mm 7 mps 740 mmHg 81%
    08:00 +14°C° 0.5 mm 7 mps 740 mmHg 77%
    09:00 +15°C° 0.5 mm 8 mps 741 mmHg 72%
    10:00 +16°C° 0.1 mm 8 mps 741 mmHg 66%
    11:00 +17°C° 0.1 mm 8 mps 741 mmHg 61%
    12:00 +18°C° 0.1 mm 8 mps 741 mmHg 55%
    13:00 +20°C° 0 mm 7 mps 741 mmHg 51%
    14:00 +20°C° 0 mm 6 mps 741 mmHg 48%
    15:00 +20°C° 0 mm 6 mps 741 mmHg 44%
    16:00 +19°C° 0 mm 5 mps 741 mmHg 46%
    17:00 +18°C° 0 mm 4 mps 741 mmHg 48%
    18:00 +17°C° 0 mm 4 mps 742 mmHg 49%
    19:00 +16°C° 0.1 mm 5 mps 742 mmHg 55%
    20:00 +16°C° 0.1 mm 6 mps 743 mmHg 60%
    21:00 +15°C° 0.1 mm 7 mps 743 mmHg 65%
    22:00 +15°C° 0.1 mm 8 mps 744 mmHg 68%
    23:00 +13°C° 0.1 mm 8 mps 744 mmHg 70%

    21 November, Wednesday

    Time Temperature Precipitation Wind Pressure Humidity
    00:00 +13°C° 0.1 mm 9 mps 744 mmHg 73%
    01:00 +13°C° 0.1 mm 9 mps 744 mmHg 74%
    02:00 +13°C° 0.1 mm 8 mps 744 mmHg 75%
    03:00 +12°C° 0.1 mm 8 mps 744 mmHg 76%
    04:00 +12°C° 0.1 mm 8 mps 745 mmHg 76%
    05:00 +12°C° 0.1 mm 8 mps 745 mmHg 75%
    06:00 +12°C° 0.1 mm 7 mps 745 mmHg 75%
    07:00 +14°C° 0.1 mm 7 mps 746 mmHg 68%
    08:00 +16°C° 0.1 mm 7 mps 747 mmHg 60%
    09:00 +17°C° 0.1 mm 7 mps 747 mmHg 53%
    10:00 +19°C° 0 mm 6 mps 747 mmHg 49%
    11:00 +20°C° 0 mm 6 mps 747 mmHg 45%
    12:00 +21°C° 0 mm 6 mps 747 mmHg 40%
    13:00 +22°C° 0 mm 5 mps 747 mmHg 40%
    14:00 +22°C° 0 mm 4 mps 747 mmHg 40%
    15:00 +22°C° 0 mm 3 mps 747 mmHg 40%
    16:00 +21°C° 0 mm 3 mps 747 mmHg 44%
    17:00 +20°C° 0 mm 2 mps 748 mmHg 48%
    18:00 +19°C° 0 mm 1 mps 748 mmHg 52%
    19:00 +19°C° 0 mm 1 mps 748 mmHg 54%
    20:00 +18°C° 0 mm 1 mps 748 mmHg 55%
    21:00 +18°C° 0 mm 1 mps 749 mmHg 57%
    22:00 +18°C° 0 mm 1 mps 749 mmHg 56%
    23:00 +17°C° 0 mm 2 mps 749 mmHg 54%

    22 November, Thursday

    Time Temperature Precipitation Wind Pressure Humidity
    00:00 +17°C° 0 mm 2 mps 748 mmHg 52%
    01:00 +16°C° 0 mm 2 mps 748 mmHg 53%
    02:00 +16°C° 0 mm 3 mps 748 mmHg 53%
    03:00 +16°C° 0 mm 3 mps 748 mmHg 53%
    04:00 +14°C° 0 mm 3 mps 748 mmHg 54%
    05:00 +14°C° 0 mm 3 mps 748 mmHg 54%
    06:00 +14°C° 0 mm 3 mps 748 mmHg 55%
    07:00 +16°C° 0 mm 3 mps 748 mmHg 53%
    08:00 +17°C° 0 mm 3 mps 748 mmHg 50%
    09:00 +18°C° 0 mm 3 mps 748 mmHg 47%
    10:00 +20°C° 0 mm 3 mps 748 mmHg 43%
    11:00 +21°C° 0 mm 3 mps 748 mmHg 39%
    12:00 +22°C° 0 mm 3 mps 747 mmHg 35%
    13:00 +22°C° 0 mm 3 mps 747 mmHg 37%
    14:00 +22°C° 0 mm 3 mps 747 mmHg 40%
    15:00 +22°C° 0 mm 4 mps 747 mmHg 42%
    16:00 +20°C° 0.1 mm 3 mps 748 mmHg 53%
    17:00 +18°C° 0.1 mm 3 mps 748 mmHg 64%
    18:00 +17°C° 0.1 mm 3 mps 749 mmHg 74%
    19:00 +17°C° 0 mm 3 mps 749 mmHg 73%
    20:00 +17°C° 0 mm 3 mps 750 mmHg 71%
    21:00 +17°C° 0 mm 3 mps 750 mmHg 69%
    22:00 +17°C° 0 mm 3 mps 750 mmHg 68%
    23:00 +17°C° 0 mm 2 mps 751 mmHg 67%

    23 November, Friday

    Time Temperature Precipitation Wind Pressure Humidity
    00:00 +16°C° 0 mm 2 mps 751 mmHg 67%
    01:00 +16°C° 0 mm 2 mps 751 mmHg 66%
    02:00 +16°C° 0 mm 2 mps 751 mmHg 66%
    03:00 +16°C° 0 mm 2 mps 751 mmHg 66%
    04:00 +15°C° 0 mm 2 mps 751 mmHg 66%
    05:00 +15°C° 0 mm 1 mps 751 mmHg 66%
    06:00 +15°C° 0 mm 1 mps 751 mmHg 65%
    07:00 +16°C° 0 mm 1 mps 751 mmHg 60%
    08:00 +18°C° 0 mm 1 mps 752 mmHg 54%
    09:00 +20°C° 0 mm 1 mps 752 mmHg 49%
    10:00 +19°C° 0 mm 2 mps 751 mmHg 46%
    11:00 +20°C° 0 mm 2 mps 751 mmHg 44%
    12:00 +21°C° 0 mm 2 mps 751 mmHg 41%
    13:00 +21°C° 0 mm 3 mps 750 mmHg 43%
    14:00 +21°C° 0 mm 3 mps 750 mmHg 44%
    15:00 +21°C° 0 mm 4 mps 750 mmHg 45%
    16:00 +20°C° 0 mm 4 mps 750 mmHg 50%
    17:00 +19°C° 0 mm 4 mps 750 mmHg 54%
    18:00 +18°C° 0 mm 4 mps 750 mmHg 59%
    19:00 +18°C° 0 mm 4 mps 749 mmHg 57%
    20:00 +18°C° 0 mm 4 mps 749 mmHg 55%
    21:00 +18°C° 0 mm 4 mps 749 mmHg 53%
    22:00 +18°C° 0.1 mm 4 mps 749 mmHg 54%
    23:00 +17°C° 0.1 mm 4 mps 749 mmHg 56%
    Show more